This demonstration page uses our WeatherBlox Daily Observations layout. Learn more.

Left ArrowRight Arrow

41.12389, -100.76542

Hourly Observations for August 7, 2019

Temp ( °F °C ) Dew Point ( °F °C ) Humidity (%) Winds ( mph kmh ) Pressure ( in mb ) Visibility ( mi km ) Precip ( " mm )
12:53 am 00:53 Clear 75 23.9 70 21.1 84 84 S 3 6 29.82 1010 10 16 0.00 0.00
1:53 am 01:53 Clear 75 23.9 70 21.1 84 84 SSW 8 13 29.82 1010 10 16 0.00 0.00
2:53 am 02:53 Clear 71 21.7 68 20 90 90 ENE 3 6 29.80 1009 10 16 0.00 0.00
3:53 am 03:53 Clear 68 20 66 18.9 93 93 ESE 3 6 29.81 1010 10 16 0.00 0.00
4:53 am 04:53 Partly Cloudy 71 21.7 69 20.6 94 94 ESE 8 13 29.85 1011 10 16 0.00 0.00
5:10 am 05:10 Mostly Cloudy 71 21.7 69 20.6 94 94 SE 14 22 29.82 1010 10 16 0.00 0.00
5:20 am 05:20 Mostly Cloudy 72 22.2 70 21.1 94 94 SE 15 24 29.82 1010 10 16 0.00 0.00
5:49 am 05:49 Partly Cloudy 68 20 64 18 88 88 ESE 15 24 29.88 1012 10 16 0.00 0.00
5:53 am 05:53 Mostly Clear 68 20 63 17.2 84 84 ESE 10 17 29.89 1012 10 16 0.00 0.00
6:22 am 06:22 Mostly Cloudy 67 19.4 61 16.1 81 81 ENE 9 15 29.90 1012 10 16 0.00 0.00
6:31 am 06:31 Partly Cloudy 67 19.4 62 16.7 84 84 E 7 11 29.89 1012 10 16 0.00 0.00
6:53 am 06:53 Sunny 66 18.9 61 16.1 84 84 ESE 7 11 29.89 1012 10 16 0.00 0.00
7:53 am 07:53 Sunny 66 18.9 62 16.7 87 87 SSE 13 20 29.87 1012 10 16 0.00 0.00
8:53 am 08:53 Sunny 67 19.4 61 16.1 81 81 SSE 12 19 29.88 1012 10 16 0.00 0.00
9:53 am 09:53 Mostly Sunny 73 22.8 62 16.7 69 69 SSE 9 15 29.86 1011 10 16 0.00 0.00
10:53 am 10:53 Mostly Sunny 73 22.8 62 16.7 69 69 SSW 12 19 29.90 1012 10 16 0.00 0.00
11:53 am 11:53 Sunny 77 25 64 17.8 64 64 SSW 12 19 29.91 1013 10 16 0.00 0.00
12:53 pm 12:53 Sunny 81 27.2 66 18.9 61 61 WSW 9 15 29.90 1013 10 16 0.00 0.00
1:53 pm 13:53 Sunny 83 28.3 67 19.4 59 59 SSW 8 13 29.88 1012 10 16 0.00 0.00
2:53 pm 14:53 Sunny 85 29.4 65 18.3 51 51 SW 6 9 29.87 1012 10 16 0.00 0.00
3:53 pm 15:53 Sunny 87 30.6 66 18.9 50 50 WSW 7 11 29.86 1011 10 16 0.00 0.00
4:53 pm 16:53 Sunny 88 31.1 65 18.3 46 46 S 7 11 29.84 1011 10 16 0.00 0.00
5:53 pm 17:53 Sunny 88 31.1 65 18.3 46 46 S 6 9 29.84 1011 10 16 0.00 0.00
6:53 pm 18:53 Sunny 85 29.4 68 20 57 57 SSE 3 6 29.84 1011 10 16 0.00 0.00
7:53 pm 19:53 Sunny 79 26.1 70 21.1 74 74 ESE 6 9 29.86 1011 10 16 0.00 0.00
8:53 pm 20:53 Clear 75 23.9 68 20 79 79 ESE 5 7 29.88 1012 10 16 0.00 0.00
9:53 pm 21:53 Clear 74 23.3 67 19.4 79 79 E 5 7 29.89 1012 10 16 0.00 0.00
10:53 pm 22:53 Clear 72 22.2 67 19.4 84 84 SSE 5 7 29.91 1013 10 16 0.00 0.00
11:53 pm 23:53 Clear 73 22.8 67 19.4 81 81 Calm 29.90 1012 10 16 0.00 0.00

Powered by AerisWeather